| time (UTC) | temp F | wind direction | speed MPH | gust MPH | rain 1hr in | rain 24hr in | rain mn in | humidity % | barometer mb |
| 20260504174717 | 76 | 29 | 9.0 | 15.0 | 0.00 | 0.00 | 0.00 | 22 | 999.4 |
| 20260504174003 | 78 | 19 | 11.0 | 15.0 | 0.00 | 0.00 | 0.00 | 22 | 999.4 |
| 20260504173503 | 78 | 20 | 11.0 | 16.0 | 0.00 | 0.00 | 0.00 | 22 | 999.5 |
| 20260504173003 | 79 | 15 | 12.0 | 18.0 | 0.00 | 0.00 | 0.00 | 22 | 999.5 |
| 20260504172932 | 79 | 16 | 12.0 | 18.0 | 0.00 | 0.00 | 0.00 | 22 | 999.5 |
| 20260504172003 | 78 | 6 | 11.0 | 17.0 | 0.00 | 0.00 | 0.00 | 21 | 999.5 |
| 20260504171932 | 78 | 6 | 11.0 | 17.0 | 0.00 | 0.00 | 0.00 | 22 | 999.5 |
| 20260504171433 | 78 | 7 | 11.0 | 16.0 | 0.00 | 0.00 | 0.00 | 23 | 999.7 |
| 20260504170503 | 77 | 5 | 11.0 | 16.0 | 0.00 | 0.00 | 0.00 | 22 | 999.7 |
| 20260504150503 | 70 | 270 | 10.0 | 15.0 | 0.00 | 0.00 | 0.00 | 30 | 999.9 |
| 20260504141003 | 61 | 294 | 8.0 | 12.0 | 0.00 | 0.00 | 0.00 | 47 | 1000.4 |
| 20260504140503 | 60 | 283 | 8.0 | 10.0 | 0.00 | 0.00 | 0.00 | 49 | 1000.4 |
| 20260504130503 | 48 | 300 | 8.0 | 11.0 | 0.00 | 0.00 | 0.00 | 65 | 1000.1 |
| 20260504110503 | 40 | 269 | 4.0 | 9.0 | 0.00 | 0.00 | 0.00 | 71 | 999.5 |
| 20260504110218 | 40 | 255 | 4.0 | 9.0 | 0.00 | 0.00 | 0.00 | 71 | 999.6 |
| 20260504100503 | 41 | 243 | 4.0 | 5.0 | 0.00 | 0.00 | 0.00 | 69 | 999.9 |
| 20260504082003 | 45 | 282 | 3.0 | 4.0 | 0.00 | 0.00 | 0.00 | 66 | 1000.7 |
| 20260504081933 | 45 | 282 | 3.0 | 4.0 | 0.00 | 0.00 | 0.00 | 66 | 1000.7 |
| 20260504081003 | 45 | 282 | 4.0 | 6.0 | 0.00 | 0.00 | 0.00 | 66 | 1000.8 |
| 20260504080718 | 45 | 282 | 3.0 | 4.0 | 0.00 | 0.00 | 0.00 | 66 | 1000.9 |
| 20260504050003 | 54 | 112 | 4.0 | 6.0 | 0.00 | 0.00 | 0.00 | 52 | 1001.9 |
| 20260504045503 | 54 | 97 | 5.0 | 7.0 | 0.00 | 0.00 | 0.00 | 52 | 1002.0 |
| 20260504045003 | 53 | 92 | 4.0 | 7.0 | 0.00 | 0.00 | 0.00 | 51 | 1002.0 |
| 20260504044503 | 53 | 95 | 2.0 | 6.0 | 0.00 | 0.00 | 0.00 | 52 | 1002.0 |
| 20260504044217 | 53 | 93 | 1.0 | 3.0 | 0.00 | 0.00 | 0.00 | 51 | 1002.0 |
| 20260504043503 | 53 | 86 | 1.0 | 3.0 | 0.00 | 0.00 | 0.00 | 50 | 1002.1 |
| 20260504043003 | 53 | 86 | 2.0 | 7.0 | 0.00 | 0.00 | 0.00 | 49 | 1002.2 |
| 20260504042933 | 53 | 86 | 2.0 | 7.0 | 0.00 | 0.00 | 0.00 | 49 | 1002.2 |
| 20260504042003 | 54 | 88 | 6.0 | 7.0 | 0.00 | 0.00 | 0.00 | 49 | 1002.3 |
| 20260504041503 | 54 | 76 | 6.0 | 9.0 | 0.00 | 0.00 | 0.00 | 48 | 1002.3 |
| 20260504041003 | 54 | 62 | 7.0 | 9.0 | 0.00 | 0.00 | 0.00 | 49 | 1002.4 |
| 20260504040503 | 54 | 49 | 6.0 | 8.0 | 0.00 | 0.00 | 0.00 | 48 | 1002.3 |
| 20260504040003 | 54 | 51 | 7.0 | 11.0 | 0.00 | 0.00 | 0.00 | 47 | 1002.4 |
| 20260504035503 | 56 | 69 | 9.0 | 12.0 | 0.00 | 0.00 | 0.00 | 45 | 1002.4 |
| 20260504035003 | 57 | 78 | 10.0 | 12.0 | 0.00 | 0.00 | 0.00 | 44 | 1002.4 |
| 20260504034503 | 57 | 80 | 10.0 | 11.0 | 0.00 | 0.00 | 0.00 | 44 | 1002.4 |
| 20260504034432 | 57 | 81 | 10.0 | 11.0 | 0.00 | 0.00 | 0.00 | 44 | 1002.4 |
| 20260504033718 | 58 | 81 | 10.0 | 12.0 | 0.00 | 0.00 | 0.00 | 43 | 1002.4 |
| 20260504033217 | 59 | 82 | 10.0 | 12.0 | 0.00 | 0.00 | 0.00 | 42 | 1002.4 |
| 20260504032503 | 59 | 79 | 9.0 | 11.0 | 0.00 | 0.00 | 0.00 | 41 | 1002.4 |
| 20260504032432 | 59 | 78 | 9.0 | 11.0 | 0.00 | 0.00 | 0.00 | 41 | 1002.4 |
| 20260504031503 | 59 | 76 | 10.0 | 12.0 | 0.00 | 0.00 | 0.00 | 40 | 1002.4 |
| 20260504031432 | 59 | 77 | 10.0 | 12.0 | 0.00 | 0.00 | 0.00 | 40 | 1002.4 |
| 20260504030503 | 59 | 76 | 9.0 | 11.0 | 0.00 | 0.00 | 0.00 | 39 | 1002.4 |
| 20260504030003 | 60 | 77 | 10.0 | 12.0 | 0.00 | 0.00 | 0.00 | 38 | 1002.3 |
| 20260504025503 | 60 | 79 | 10.0 | 12.0 | 0.00 | 0.00 | 0.00 | 37 | 1002.2 |
| 20260504025217 | 60 | 78 | 10.0 | 12.0 | 0.00 | 0.00 | 0.00 | 37 | 1002.1 |
| 20260504024503 | 60 | 76 | 9.0 | 12.0 | 0.00 | 0.00 | 0.00 | 38 | 1002.1 |
| 20260504024003 | 60 | 67 | 6.0 | 10.0 | 0.00 | 0.00 | 0.00 | 38 | 1002.1 |
| 20260504023718 | 60 | 57 | 5.0 | 9.0 | 0.00 | 0.00 | 0.00 | 38 | 1002.0 |
| 20260504023432 | 60 | 54 | 5.0 | 9.0 | 0.00 | 0.00 | 0.00 | 37 | 1002.0 |
| 20260504022503 | 63 | 66 | 10.0 | 12.0 | 0.00 | 0.00 | 0.00 | 34 | 1002.0 |
| 20260504022003 | 64 | 66 | 10.0 | 13.0 | 0.00 | 0.00 | 0.00 | 33 | 1002.0 |
| 20260504021503 | 64 | 69 | 11.0 | 13.0 | 0.00 | 0.00 | 0.00 | 32 | 1001.9 |
| 20260504021216 | 65 | 70 | 11.0 | 13.0 | 0.00 | 0.00 | 0.00 | 32 | 1001.9 |
| 20260504020503 | 65 | 68 | 11.0 | 13.0 | 0.00 | 0.00 | 0.00 | 32 | 1001.8 |
| 20260504020433 | 65 | 67 | 11.0 | 13.0 | 0.00 | 0.00 | 0.00 | 32 | 1001.8 |
| 20260504015503 | 67 | 68 | 11.0 | 13.0 | 0.00 | 0.00 | 0.00 | 31 | 1001.8 |
| 20260504015433 | 67 | 69 | 11.0 | 13.0 | 0.00 | 0.00 | 0.00 | 31 | 1001.8 |
| 20260504014503 | 67 | 72 | 10.0 | 12.0 | 0.00 | 0.00 | 0.00 | 29 | 1001.7 |
| 20260504014003 | 68 | 66 | 10.0 | 13.0 | 0.00 | 0.00 | 0.00 | 28 | 1001.8 |
| 20260504013717 | 68 | 62 | 10.0 | 13.0 | 0.00 | 0.00 | 0.00 | 28 | 1001.8 |
| 20260504013003 | 69 | 53 | 11.0 | 13.0 | 0.00 | 0.00 | 0.00 | 27 | 1001.8 |
| 20260504012717 | 70 | 50 | 9.0 | 13.0 | 0.00 | 0.00 | 0.00 | 26 | 1001.7 |
| 20260504012003 | 70 | 48 | 8.0 | 11.0 | 0.00 | 0.00 | 0.00 | 25 | 1001.7 |
| 20260504011503 | 71 | 49 | 8.0 | 11.0 | 0.00 | 0.00 | 0.00 | 23 | 1001.7 |
| 20260504011433 | 71 | 49 | 8.0 | 11.0 | 0.00 | 0.00 | 0.00 | 23 | 1001.7 |
| 20260504010503 | 73 | 46 | 6.0 | 9.0 | 0.00 | 0.00 | 0.00 | 22 | 1001.7 |
| 20260504010003 | 74 | 43 | 6.0 | 9.0 | 0.00 | 0.00 | 0.00 | 21 | 1001.8 |
| 20260504005932 | 74 | 42 | 6.0 | 9.0 | 0.00 | 0.00 | 0.00 | 21 | 1001.8 |
| 20260504005004 | 76 | 40 | 8.0 | 11.0 | 0.00 | 0.00 | 0.00 | 20 | 1001.8 |
| 20260504004503 | 76 | 35 | 8.0 | 11.0 | 0.00 | 0.00 | 0.00 | 20 | 1001.8 |
| 20260504004003 | 76 | 31 | 7.0 | 10.0 | 0.00 | 0.00 | 0.00 | 21 | 1001.9 |
| 20260504003503 | 76 | 31 | 6.0 | 9.0 | 0.00 | 0.00 | 0.00 | 22 | 1001.9 |
| 20260504003003 | 75 | 32 | 6.0 | 9.0 | 0.00 | 0.00 | 0.00 | 23 | 1001.9 |
| 20260504002503 | 75 | 30 | 7.0 | 9.0 | 0.00 | 0.00 | 0.00 | 22 | 1002.0 |
| 20260504002003 | 74 | 29 | 7.0 | 9.0 | 0.00 | 0.00 | 0.00 | 23 | 1002.0 |
| 20260504001503 | 74 | 22 | 7.0 | 9.0 | 0.00 | 0.00 | 0.00 | 23 | 1002.0 |
| 20260504001218 | 75 | 15 | 7.0 | 9.0 | 0.00 | 0.00 | 0.00 | 23 | 1002.0 |
| 20260504000717 | 75 | 11 | 6.0 | 9.0 | 0.00 | 0.00 | 0.00 | 23 | 1002.1 |
| 20260504000433 | 76 | 15 | 5.0 | 9.0 | 0.00 | 0.00 | 0.00 | 22 | 1002.1 |
| 20260503235503 | 77 | 4 | 7.0 | 11.0 | 0.00 | 0.00 | 0.00 | 20 | 1002.2 |
| 20260503235003 | 78 | 4 | 9.0 | 11.0 | 0.00 | 0.00 | 0.00 | 18 | 1002.2 |
| 20260503234503 | 79 | 4 | 10.0 | 12.0 | 0.00 | 0.00 | 0.00 | 18 | 1002.2 |
| 20260503234217 | 79 | 1 | 10.0 | 12.0 | 0.00 | 0.00 | 0.00 | 18 | 1002.3 |
| 20260503233503 | 79 | 5 | 7.0 | 11.0 | 0.00 | 0.00 | 0.00 | 19 | 1002.3 |
| 20260503233003 | 79 | 31 | 4.0 | 10.0 | 0.00 | 0.00 | 0.00 | 18 | 1002.3 |
| 20260503232503 | 80 | 29 | 3.0 | 9.0 | 0.00 | 0.00 | 0.00 | 16 | 1002.3 |
| 20260503232003 | 80 | 34 | 5.0 | 9.0 | 0.00 | 0.00 | 0.00 | 17 | 1002.3 |
| 20260503231716 | 80 | 38 | 6.0 | 9.0 | 0.00 | 0.00 | 0.00 | 17 | 1002.3 |
| 20260503231003 | 79 | 25 | 7.0 | 11.0 | 0.00 | 0.00 | 0.00 | 19 | 1002.3 |
| 20260503230503 | 80 | 6 | 8.0 | 12.0 | 0.00 | 0.00 | 0.00 | 19 | 1002.4 |
| 20260503230003 | 80 | 360 | 8.0 | 12.0 | 0.00 | 0.00 | 0.00 | 19 | 1002.5 |
| 20260503225503 | 80 | 10 | 7.0 | 16.0 | 0.00 | 0.00 | 0.00 | 18 | 1002.5 |
| 20260503225003 | 80 | 28 | 5.0 | 16.0 | 0.00 | 0.00 | 0.00 | 19 | 1002.5 |
| 20260503224503 | 80 | 57 | 4.0 | 9.0 | 0.00 | 0.00 | 0.00 | 18 | 1002.6 |
| 20260503224217 | 80 | 65 | 4.0 | 9.0 | 0.00 | 0.00 | 0.00 | 18 | 1002.5 |
| 20260503223933 | 80 | 65 | 3.0 | 8.0 | 0.00 | 0.00 | 0.00 | 18 | 1002.6 |
| 20260503223003 | 80 | 9 | 6.0 | 13.0 | 0.00 | 0.00 | 0.00 | 18 | 1002.7 |
| 20260503222503 | 80 | 360 | 6.0 | 12.0 | 0.00 | 0.00 | 0.00 | 18 | 1002.7 |
| 20260503222003 | 81 | 359 | 7.0 | 12.0 | 0.00 | 0.00 | 0.00 | 19 | 1002.7 |
| 20260503221718 | 81 | 352 | 6.0 | 12.0 | 0.00 | 0.00 | 0.00 | 18 | 1002.7 |
| 20260503221217 | 80 | 10 | 6.0 | 12.0 | 0.00 | 0.00 | 0.00 | 18 | 1002.8 |
| 20260503220503 | 80 | 42 | 2.0 | 8.0 | 0.00 | 0.00 | 0.00 | 18 | 1003.0 |
| 20260503220003 | 80 | 28 | 2.0 | 8.0 | 0.00 | 0.00 | 0.00 | 18 | 1003.1 |
| 20260503215718 | 80 | 32 | 4.0 | 10.0 | 0.00 | 0.00 | 0.00 | 18 | 1003.1 |
| 20260503215003 | 80 | 36 | 4.0 | 10.0 | 0.00 | 0.00 | 0.00 | 17 | 1003.1 |
| 20260503214503 | 80 | 42 | 2.0 | 9.0 | 0.00 | 0.00 | 0.00 | 18 | 1003.2 |
| 20260503214003 | 80 | 30 | 4.0 | 10.0 | 0.00 | 0.00 | 0.00 | 17 | 1003.4 |
| 20260503213933 | 80 | 30 | 4.0 | 10.0 | 0.00 | 0.00 | 0.00 | 17 | 1003.4 |
| 20260503213003 | 80 | 19 | 5.0 | 11.0 | 0.00 | 0.00 | 0.00 | 18 | 1003.4 |
| 20260503212503 | 81 | 340 | 5.0 | 11.0 | 0.00 | 0.00 | 0.00 | 19 | 1003.6 |
| 20260503212003 | 81 | 335 | 6.0 | 10.0 | 0.00 | 0.00 | 0.00 | 19 | 1003.6 |
| 20260503211503 | 80 | 345 | 5.0 | 10.0 | 0.00 | 0.00 | 0.00 | 20 | 1003.6 |
| 20260503211003 | 79 | 5 | 5.0 | 11.0 | 0.00 | 0.00 | 0.00 | 21 | 1003.8 |
| 20260503210503 | 78 | 37 | 5.0 | 11.0 | 0.00 | 0.00 | 0.00 | 21 | 1003.9 |
| 20260503210003 | 78 | 58 | 6.0 | 14.0 | 0.00 | 0.00 | 0.00 | 21 | 1004.0 |
| 20260503205503 | 78 | 32 | 9.0 | 15.0 | 0.00 | 0.00 | 0.00 | 20 | 1004.1 |
| 20260503205003 | 79 | 13 | 10.0 | 15.0 | 0.00 | 0.00 | 0.00 | 20 | 1004.2 |
| 20260503204503 | 79 | 4 | 6.0 | 13.0 | 0.00 | 0.00 | 0.00 | 21 | 1004.3 |
| 20260503204003 | 79 | 348 | 4.0 | 10.0 | 0.00 | 0.00 | 0.00 | 20 | 1004.3 |
| 20260503203503 | 78 | 12 | 6.0 | 12.0 | 0.00 | 0.00 | 0.00 | 21 | 1004.4 |
| 20260503203003 | 78 | 26 | 7.0 | 12.0 | 0.00 | 0.00 | 0.00 | 21 | 1004.4 |
| 20260503202932 | 78 | 25 | 7.0 | 12.0 | 0.00 | 0.00 | 0.00 | 21 | 1004.4 |
| 20260503202003 | 78 | 2 | 10.0 | 15.0 | 0.00 | 0.00 | 0.00 | 21 | 1004.6 |
| 20260503201717 | 78 | 10 | 8.0 | 15.0 | 0.00 | 0.00 | 0.00 | 22 | 1004.7 |
| 20260503201433 | 78 | 23 | 7.0 | 15.0 | 0.00 | 0.00 | 0.00 | 21 | 1004.7 |
| 20260503200932 | 78 | 15 | 6.0 | 13.0 | 0.00 | 0.00 | 0.00 | 21 | 1004.7 |
| 20260503200003 | 78 | 14 | 8.0 | 16.0 | 0.00 | 0.00 | 0.00 | 20 | 1004.9 |
| 20260503195503 | 79 | 12 | 8.0 | 14.0 | 0.00 | 0.00 | 0.00 | 21 | 1004.8 |
| 20260503195003 | 78 | 10 | 10.0 | 16.0 | 0.00 | 0.00 | 0.00 | 21 | 1004.8 |
| 20260503194503 | 78 | 19 | 12.0 | 18.0 | 0.00 | 0.00 | 0.00 | 21 | 1004.8 |
| 20260503194218 | 78 | 26 | 11.0 | 18.0 | 0.00 | 0.00 | 0.00 | 22 | 1004.9 |
| 20260503193503 | 77 | 37 | 11.0 | 18.0 | 0.00 | 0.00 | 0.00 | 21 | 1005.0 |
| 20260503193003 | 77 | 20 | 9.0 | 18.0 | 0.00 | 0.00 | 0.00 | 21 | 1004.9 |
| 20260503192503 | 77 | 20 | 9.0 | 15.0 | 0.00 | 0.00 | 0.00 | 21 | 1005.0 |
| 20260503192218 | 77 | 29 | 9.0 | 15.0 | 0.00 | 0.00 | 0.00 | 22 | 1005.0 |
| 20260503191932 | 77 | 37 | 9.0 | 15.0 | 0.00 | 0.00 | 0.00 | 22 | 1005.0 |
| 20260503191003 | 77 | 45 | 9.0 | 16.0 | 0.00 | 0.00 | 0.00 | 21 | 1005.2 |
| 20260503190503 | 76 | 53 | 10.0 | 17.0 | 0.00 | 0.00 | 0.00 | 22 | 1005.2 |
| 20260503190003 | 77 | 60 | 10.0 | 17.0 | 0.00 | 0.00 | 0.00 | 23 | 1005.3 |
| 20260503185503 | 77 | 56 | 11.0 | 16.0 | 0.00 | 0.00 | 0.00 | 22 | 1005.4 |
| 20260503185003 | 77 | 35 | 10.0 | 20.0 | 0.00 | 0.00 | 0.00 | 22 | 1005.5 |
| 20260503184932 | 77 | 34 | 10.0 | 20.0 | 0.00 | 0.00 | 0.00 | 22 | 1005.5 |
| 20260503184433 | 77 | 18 | 9.0 | 15.0 | 0.00 | 0.00 | 0.00 | 22 | 1005.6 |
| 20260503183503 | 76 | 28 | 9.0 | 17.0 | 0.00 | 0.00 | 0.00 | 23 | 1005.9 |
| 20260503183003 | 76 | 32 | 10.0 | 19.0 | 0.00 | 0.00 | 0.00 | 23 | 1005.9 |
| 20260503182932 | 75 | 34 | 10.0 | 19.0 | 0.00 | 0.00 | 0.00 | 23 | 1005.9 |
| 20260503182003 | 76 | 31 | 11.0 | 18.0 | 0.00 | 0.00 | 0.00 | 22 | 1006.0 |
| 20260503181504 | 77 | 28 | 12.0 | 18.0 | 0.00 | 0.00 | 0.00 | 22 | 1006.1 |
| 20260503181217 | 77 | 30 | 12.0 | 17.0 | 0.00 | 0.00 | 0.00 | 22 | 1006.2 |
| 20260503180503 | 76 | 15 | 11.0 | 17.0 | 0.00 | 0.00 | 0.00 | 23 | 1006.4 |
| 20260503180003 | 76 | 22 | 11.0 | 19.0 | 0.00 | 0.00 | 0.00 | 22 | 1006.6 |
| 20260503175931 | 76 | 22 | 11.0 | 19.0 | 0.00 | 0.00 | 0.00 | 22 | 1006.6 |
| 20260503175003 | 75 | 15 | 6.0 | 14.0 | 0.00 | 0.00 | 0.00 | 24 | 1006.8 |
| 20260503174933 | 75 | 14 | 6.0 | 14.0 | 0.00 | 0.00 | 0.00 | 24 | 1006.8 |